Regional Weather Roundup
Issued by NWS

Home | Current Version | Previous Version | Graphics & Text | Print | Product List | Glossary On
Versions: 1 2 3 4 5 6 7 8 9 10 11 12 13 14 15 16 17 18 19 20 21 22 23 24 25 26 27 28 29 30 31 32 33 34 35 36 37 38 39 40 41 42 43 44 45 46 47 48 49 50
728
ASUS43 KOAX 250202
RWRNE

WEATHER ROUNDUP FOR NEBRASKA
NATIONAL WEATHER SERVICE OMAHA NE
900 PM CDT TUE MAY 24 2016

NOTES: SATELLITE DATA IS BEING USED TO AUGMENT CLOUD COVER ABOVE
       12000 FEET.
       "FAIR" INDICATES FEW OR NO CLOUDS BELOW 12,000 FEET WITH NO
       SIGNIFICANT WEATHER AND/OR OBSTRUCTIONS TO VISIBILITY.

  * THESE STATIONS DO NOT REPORT WEATHER SUCH AS RAIN...SNOW OR FOG.

NEZ001>004-019>022-054>056-250300-
NEBRASKA PANHANDLE

CITY           SKY/WX    TMP DP  RH WIND       PRES   REMARKS
SCOTTSBLUFF    CLOUDY    59  48  67 SE10      29.81R
ALLIANCE       CLOUDY    56  49  77 S10       29.87R
CHADRON        CLOUDY    55  32  41 NE13      29.87R
SIDNEY         CLOUDY    57  52  83 SE5       29.84F
$$

NEZ057>060-069>072-079>082-250300-
SOUTHWEST NEBRASKA

CITY           SKY/WX    TMP DP  RH WIND       PRES   REMARKS
NORTH PLATTE   CLOUDY    69  59  70 SE9       29.78F
IMPERIAL       CLOUDY    67  60  78 SE10      29.78R
LEXINGTON      CLOUDY    72  59  63 SE10      29.79F
MCCOOK         CLOUDY    72  61  68 SE13      29.76F
$$

NEZ005>010-023>029-035>040-094-250300-
NORTH CENTRAL NEBRASKA

CITY           SKY/WX    TMP DP  RH WIND       PRES   REMARKS
VALENTINE      CLOUDY    73  51  46 SE14      29.77F
AINSWORTH      MOCLDY    72  53  51 SE10      29.78F
BROKEN BOW     CLEAR     71  59  65 SE10      29.81F
ORD            PTCLDY    73  59  61 SE10      29.80S
$$

NEZ041-046>049-061>064-073>077-083>087-250300-
SOUTH CENTRAL NEBRASKA

CITY           SKY/WX    TMP DP  RH WIND       PRES   REMARKS
GRAND ISLAND   CLOUDY    74  62  66 E6        29.83F
AURORA         CLOUDY    74  63  66 SE8       29.84S
HASTINGS       CLOUDY    73  60  63 SE10      29.82F
KEARNEY *      CLOUDY    73  57  56 SE12      29.82S
YORK           CLOUDY    73  63  68 SE7       29.84S
$$

NEZ011>018-030>034-042>045-250300-
NORTHEAST NEBRASKA

CITY           SKY/WX    TMP DP  RH WIND       PRES   REMARKS
NORFOLK        CLEAR     72  56  57 SE9       29.84R
ALBION         CLEAR     73  55  52 SE8       29.84R
BLAIR          CLEAR     74  61  64 SE5       29.85F
FREMONT        CLEAR     72  60  64 SE5       29.86R
TEKAMAH        CLEAR     72  61  68 SE8       29.83F
$$

NEZ050>053-065>068-078-088>093-250300-
SOUTHEAST NEBRASKA

CITY           SKY/WX    TMP DP  RH WIND       PRES   REMARKS
LINCOLN        CLEAR     76  61  59 E8        29.84S
OMAHA EPPLEY   PTCLDY    74  60  61 E6        29.84F
BEATRICE       CLOUDY    76  61  61 SE8       29.85R
FALLS CITY     CLEAR     75  63  66 SE12      29.85S
NEBRASKA CITY  CLEAR     74  63  68 E12       29.86R
PLATTSMOUTH    CLEAR     75  62  63 SE5       29.86S
$$

NEZ044-045-051>053-067-250300-
OMAHA AREA

CITY           SKY/WX    TMP DP  RH WIND       PRES   REMARKS
OMAHA EPPLEY   PTCLDY    74  60  61 E6        29.84F
BLAIR          CLEAR     74  61  64 SE5       29.85F
FREMONT        CLEAR     72  60  64 SE5       29.86R
PLATTSMOUTH    CLEAR     75  62  63 SE5       29.86S
WAHOO          FAIR      72  64  74 SE7       29.84S
$$




USA.gov is the U.S. government's official web portal to all federal, state and local government web resources and services.